Home > Weather > Olsztyn > Past weeks

Flag for Poland Past Weather in Olsztyn, Poland — Yesterday and Last 2 Weeks

Now
78 °F

Warm.


Feels Like: 79 °F
Forecast: 63 / 82 °F
Wind: 3 mph from East

Location: Ketrzyn

Current Time: May 29, 2016 at 7:18:24 PM

Latest Report: May 29, 2016 at 6:00 PM


Visibility: 25 mi

Pressure: 29.91 "Hg

Humidity: 47%

Dew Point: 56 °F

Location of OlsztynLocation

Past Weather in Olsztyn — Graph

°F

Olsztyn Temperature Yesterday

Maximum temperature yesterday: 77 °F (at 3:00 PM)
Minimum temperature yesterday: 56 °F (at 2:00 AM)
Average temperature yesterday: 67 °F

High & Low Weather Summary for the Past Weeks

 TemperatureHumidityPressure
High81 °F (May 29, 4:00 PM)97% (May 18, 3:00 AM)30.08 "Hg (May 18, 3:00 AM)
Low38 °F (May 18, 5:00 AM)35% (May 24, 1:00 PM)29.54 "Hg (May 14, 7:00 PM)
Average58 °F72%29.92 "Hg
* Reported May 14 7:00 PM — May 29 6:00 PM, Olsztyn, Weather by CustomWeather, © 2016

Note: Actual official high and low records may vary slightly from our data, if they occured in-between our weather recording intervals... More about our weather records

Advertising

Olsztyn Weather History for the Previous 24 Hours

Scroll right to see more
 ConditionsComfort  
Time TempWeatherWind HumidityBarometerVisibility
6:00 PM
Sun, May 29
78 °FWarm.3 mph47%29.91 "Hg25 mi
5:00 PM79 °FWarm.5 mph43%29.91 "Hg19 mi
4:00 PM81 °FWarm.5 mph42%29.92 "Hg17 mi
3:00 PM80 °FWarm.6 mph48%29.93 "Hg22 mi
2:00 PM81 °FWarm.5 mph48%29.94 "Hg19 mi
1:00 PM79 °FWarm.6 mph49%29.95 "Hg19 mi
12:00 PM78 °FWarm.6 mph53%29.96 "Hg19 mi
11:00 AM76 °FMild.6 mph56%29.96 "Hg14 mi
10:00 AM73 °FMild.5 mph61%29.97 "Hg16 mi
9:00 AM72 °FMild.3 mph65%29.97 "Hg19 mi
8:00 AM69 °FMild.5 mph71%29.97 "Hg14 mi
7:00 AM65 °FMild.6 mph75%29.97 "Hg17 mi
6:00 AM63 °FMild.5 mph79%29.98 "Hg15 mi
5:00 AM60 °FCool.3 mph81%29.98 "Hg19 mi
4:00 AM60 °FCool.3 mph81%29.98 "Hg19 mi
3:00 AM61 °FCool.2 mph80%29.99 "Hg22 mi
2:00 AM61 °FCool.3 mph79%29.99 "Hg22 mi
1:00 AM63 °FMild.2 mph74%29.99 "Hg22 mi
12:00 AM64 °FMild.2 mph71%30.01 "Hg22 mi
11:00 PM
Sat, May 28
65 °FMild.3 mph68%30.00 "Hg25 mi
10:00 PM66 °FMild.3 mph68%30.01 "Hg19 mi
9:00 PM67 °FMild.3 mph66%30.01 "Hg28 mi
8:00 PM70 °FMild.5 mph58%30.00 "Hg22 mi
7:00 PM73 °FMild.5 mph53%29.99 "Hg22 mi
Weather by CustomWeather, © 2016

See weather overviewHow to use our weather pages